Monroe, LA

8:47 AM CDT on March 27, 2017 (GMT -0500)
Monroe Regional

Weather History for KMLU - December, 2012

Change the Weather History Date:

Monday, December 3, 2012

  Actual Average Record
Temperature  
Mean Temperature 69 °F 51 °F  
Max Temperature 78 °F 62 °F 83 °F (1995)
Min Temperature 59 °F 40 °F 25 °F (1974)
Degree Days  
Heating Degree Days 0 15  
Month to date heating degree days 2 43  
Since 1 July heating degree days 432 415  
Cooling Degree Days 4 0  
Month to date cooling degree days 9 0  
Year to date cooling degree days 2778 2508  
Growing Degree Days 18 (Base 50)    
Moisture  
Dew Point 60 °F    
Average Humidity 77    
Maximum Humidity 97    
Minimum Humidity 56    
Precipitation  
Precipitation 0.00 in 0.17 in 4.04 in (1983)
Month to date precipitation T 0.53  
Year to date precipitation 51.85 49.26  
Snow  
Snow 0.00 in - - ()
Month to date snowfall 0.0  
Since 1 July snowfall 0.0  
Snow Depth 0.00 in    
Sea Level Pressure  
Sea Level Pressure 30.13 in    
Wind  
Wind Speed 7 mph (South)    
Max Wind Speed 17 mph    
Max Gust Speed 23 mph    
Visibility 8 miles    
Events      
T = Trace of Precipitation, MM = Missing Value Source: NWS Daily Summary

Daily Weather History Graph

Daily Weather History Graph

Search for Another Location

Airport or City:

Trip Planner

Search our weather history database for the weather conditions in past years. The results will help you decide how hot, cold, wet, or windy it might be!

Date:

Astronomy

Dec. 03, 2012 Rise Set
Actual Time 6:54 AM CST 5:02 PM CST
Civil Twilight 6:27 AM CST 5:29 PM CST
Nautical Twilight 5:56 AM CST 5:59 PM CST
Astronomical Twilight 5:26 AM CST 6:29 PM CST
Moon 9:40 PM CST (12/3) 10:25 AM CST (12/3)
Length of Visible Light 11h 02m
Length of Day
10h 08m
Waning Gibbous, 78% of the Moon is Illuminated
Dec 3
Waning Gibbous
Dec 6
Last Quarter
Dec 13
New
Dec 19
First Quarter
Dec 28
Full

Hourly Weather History & Observations

Time (CST) Temp. Dew Point Humidity Pressure Visibility Wind Dir Wind Speed Gust Speed Precip Events Conditions
12:53 AM 63.0 °F 59.0 °F 87% 30.16 in 10.0 mi South 6.9 mph - N/A   Clear
1:53 AM 62.1 °F 59.0 °F 90% 30.16 in 10.0 mi SSE 3.5 mph - N/A   Clear
2:53 AM 61.0 °F 59.0 °F 93% 30.16 in 10.0 mi South 3.5 mph - N/A   Clear
3:53 AM 61.0 °F 59.0 °F 93% 30.15 in 6.0 mi Variable 3.5 mph - N/A   Clear
4:53 AM 60.1 °F 57.9 °F 93% 30.14 in 7.0 mi SSE 3.5 mph - N/A   Clear
5:53 AM 60.1 °F 57.9 °F 93% 30.15 in 5.0 mi SSE 3.5 mph - N/A   Partly Cloudy
6:22 AM 59.0 °F 57.2 °F 94% 30.16 in 4.0 mi SE 3.5 mph - N/A   Scattered Clouds
6:37 AM 60.8 °F 57.2 °F 88% 30.17 in 3.0 mi Calm Calm - N/A   Mostly Cloudy
6:53 AM 59.0 °F 57.9 °F 96% 30.17 in 3.0 mi Calm Calm - N/A   Mostly Cloudy
6:59 AM 59.0 °F 57.2 °F 94% 30.17 in 1.8 mi SSE 3.5 mph - N/A   Scattered Clouds
7:10 AM 59.0 °F 57.2 °F 94% 30.17 in 3.0 mi SE 3.5 mph - N/A   Partly Cloudy
7:53 AM 61.0 °F 57.9 °F 90% 30.17 in 6.0 mi SSE 3.5 mph - N/A   Partly Cloudy
8:39 AM 62.6 °F 59.0 °F 88% 30.18 in 8.0 mi SSE 5.8 mph - N/A   Partly Cloudy
8:53 AM 64.0 °F 60.1 °F 87% 30.18 in 10.0 mi South 5.8 mph - N/A   Partly Cloudy
9:13 AM 64.4 °F 60.8 °F 88% 30.18 in 10.0 mi South 4.6 mph - N/A   Mostly Cloudy
9:53 AM 68.0 °F 61.0 °F 78% 30.17 in 10.0 mi South 10.4 mph 20.7 mph N/A   Partly Cloudy
10:14 AM 69.8 °F 60.8 °F 73% 30.17 in 10.0 mi SSE 6.9 mph - N/A   Mostly Cloudy
10:53 AM 71.1 °F 62.1 °F 73% 30.15 in 10.0 mi South 9.2 mph - N/A   Overcast
11:51 AM 75.2 °F 60.8 °F 61% 30.12 in 10.0 mi South 10.4 mph 23.0 mph N/A   Mostly Cloudy
11:53 AM 75.9 °F 62.1 °F 62% 30.12 in 10.0 mi SSW 11.5 mph 21.9 mph N/A   Mostly Cloudy
12:53 PM 75.2 °F 60.8 °F 61% 30.09 in 10.0 mi South 13.8 mph 20.7 mph N/A   Overcast
1:53 PM 77.0 °F 60.1 °F 56% 30.08 in 10.0 mi SSW 12.7 mph - N/A   Overcast
2:53 PM 75.9 °F 60.1 °F 58% 30.08 in 10.0 mi South 10.4 mph - N/A   Overcast
3:53 PM 77.0 °F 61.0 °F 58% 30.06 in 10.0 mi South 9.2 mph - N/A   Mostly Cloudy
4:53 PM 75.9 °F 59.0 °F 56% 30.07 in 10.0 mi South 9.2 mph - N/A   Overcast
5:53 PM 73.9 °F 60.1 °F 62% 30.07 in 10.0 mi South 8.1 mph - N/A   Overcast
6:53 PM 72.0 °F 60.1 °F 66% 30.09 in 10.0 mi SSE 4.6 mph - N/A   Overcast
7:53 PM 71.1 °F 61.0 °F 70% 30.08 in 10.0 mi South 6.9 mph - N/A   Overcast
8:53 PM 69.1 °F 62.1 °F 78% 30.09 in 10.0 mi South 4.6 mph - N/A   Mostly Cloudy
9:53 PM 70.0 °F 61.0 °F 73% 30.09 in 10.0 mi South 6.9 mph - N/A   Mostly Cloudy
10:53 PM 70.0 °F 60.1 °F 71% 30.10 in 10.0 mi South 6.9 mph - N/A   Overcast
11:53 PM 69.1 °F 59.0 °F 70% 30.09 in 10.0 mi South 9.2 mph - N/A   Mostly Cloudy